Regional Weather Roundup
Issued by NWS

Home | Current Version | Previous Version | Text Only | Print | Product List | Glossary Off
Versions: 1 2 3 4 5 6 7 8 9 10 11 12 13 14 15 16 17 18 19 20 21 22 23 24 25 26 27 28 29 30 31 32 33 34 35 36 37 38 39 40 41 42 43 44 45 46 47 48 49 50

000
ASUS45 KTFX 101310
RWRMT
MONTANA REGIONAL WEATHER ROUNDUP
NATIONAL WEATHER SERVICE GREAT FALLS MT
600 AM MST WED FEB 10 2016

NOTE: "FAIR" INDICATES FEW OR NO CLOUDS BELOW 12000 FEET WITH NO
SIGNIFICANT WEATHER AND/OR OBSTRUCTIONS TO VISIBILITY.

MTZ001>007-043-101400-
WEST OF THE DIVIDE

CITY           SKY/WX    TMP DP  RH WIND       PRES   REMARKS
KALISPELL      FOG       21  19  92 CALM      30.25R VSB 1/4
MISSOULA       FOG       18  16  92 W3        30.29R VSB 3/4
BUTTE          CLOUDY     9   5  84 CALM      30.26R
MULLAN PASS    CLEAR     36  26  67 SW7       30.23R WCI  30
ANACONDA         N/A     27  19  74 CALM      30.24R
DEER LODGE       N/A     21  19  93 CALM      30.26R
HAMILTON         N/A     25  23  93 CALM      30.27R
LIBBY            N/A     21  19  93 CALM      30.28R VSB 1/4
$$

MTZ008-052>055-101400-
SOUTHWEST MONTANA

CITY           SKY/WX    TMP DP  RH WIND       PRES   REMARKS
BOZEMAN        CLOUDY    19  13  77 S5        30.22S
DILLON         CLOUDY    32  22  66 SW17      30.24R WCI  21
ENNIS          CLEAR     34  23  64 S18G25    30.28F WCI  23
THREE FORKS      N/A     21   7  55 CALM      30.18S
$$

MTZ009-010-012-014-046-048-049-054-101400-
EAST SLOPES AND CENTRAL MONTANA

CITY           SKY/WX    TMP DP  RH WIND       PRES   REMARKS
CUT BANK       MOCLDY    42  25  50 NW9       30.03R
GREAT FALLS    CLOUDY    44  24  45 SW13      30.04R
HELENA         CLOUDY    29  26  89 SW6       30.18F WCI  23
CHOTEAU          N/A     54  23  30 W13G21    30.04R
CONRAD           N/A     55  26  32 W15       30.02S
$$

MTZ011-013-016-021-045-047-050-051-101400-
NORTH CENTRAL MONTANA

CITY           SKY/WX    TMP DP  RH WIND       PRES   REMARKS
HAVRE          CLOUDY    34  26  72 SW12      29.99R WCI  25
LEWISTOWN      CLOUDY    37  23  56 SW16      30.03R WCI  28
N BAR RANCH      N/A     50  16  25 NW14G22   30.02R
CHINOOK          N/A     34  25  69 CALM      29.99R
$$

MTZ017>020-022>027-061-062-101400-
NORTHEAST MONTANA

CITY           SKY/WX    TMP DP  RH WIND       PRES   REMARKS
GLASGOW        CLEAR     35  27  72 NW13      29.94R WCI  26
JORDAN           N/A     34  26  72 W12       29.94R WCI  25
SIDNEY         CLEAR     37  28  70 NW16      29.86R WCI  28
WOLF POINT     CLOUDY    32  27  81 SW9       29.91R WCI  24
PLENTYWOOD       N/A     32  28  86 NW10      29.86R WCI  24
POPLAR           N/A     30  27  86 W6        29.91R WCI  24
SCOBEY           N/A     34  24  67 W9        29.87R WCI  27
$$

MTZ028>42-056>058-101400-
SOUTHCENTRAL AND SOUTHEAST MONTANA

CITY           SKY/WX    TMP DP  RH WIND       PRES   REMARKS
BAKER          CLEAR     33  22  63 N5        29.88S
BILLINGS       CLOUDY    44  21  40 SW21      30.02R
LIVINGSTON     CLOUDY    40  21  46 NW16G23   30.17R
MILES CITY     CLOUDY    33  23  66 W7        29.93R WCI  27
FORSYTH          N/A     41  21  45 SW6       29.94S
LAUREL           N/A     43  19  38 SW13      30.02S
ROUNDUP          N/A     45  16  31 CALM      29.92R
$$

REGIONAL REPORTS...DAKOTAS

CITY           SKY/WX    TMP DP  RH WIND       PRES   REMARKS
WILLISTON      CLOUDY    24  22  91 S3        29.84R
MINOT          CLOUDY    18  10  71 E12       29.88R WCI   5
DICKINSON      CLOUDY    30  25  81 W12       29.78F WCI  20
BEACH            N/A     36  27  69 W17G24    29.87R WCI  25
CROSBY           N/A     19  19 100 NE10      29.88R WCI   8
TIOGA            N/A     18  18 100 CALM      29.87R
WATFORD CITY     N/A     27  25  93 SW9       29.83R WCI  17
BISMARCK       CLOUDY    23  17  78 SE10      29.86F WCI  12
GRAND FORKS    LGT SNOW   5  -2  72 SE9       30.12F WCI  -9
FARGO          LGT SNOW   7   1  76 E7        30.10S WCI  -5
BUFFALO SD       N/A     39  25  57 W20       29.79R WCI  29
RAPID CITY     CLOUDY    39  23  52 NW12      29.88S WCI  32
$$

REGIONAL REPORTS...WYOMING/IDAHO/WASHINGTON

CITY           SKY/WX    TMP DP  RH WIND       PRES   REMARKS
GILLETTE       CLOUDY    41  20  43 W14       30.01R
SHERIDAN       CLEAR     42  16  34 CALM      30.00R
BUFFALO WY     CLOUDY    58   8  13 NW14      30.03S
CODY           CLOUDY    37  18  44 S5        30.12R
YELLOWSTONE LA   N/A      3  -2  79 CALM      30.39R
IDAHO FALLS    CLOUDY     4   1  88 N8        30.42S WCI  -9
SALMON         CLOUDY     3   0  85 CALM      30.44R
BOISE          FOG       28  28 100 E3        30.42F VSB 1/4
SPOKANE        MOCLDY    30  29  96 E5        30.24S FOG
$$

REGIONAL REPORTS...ALBERTA

CITY           SKY/WX    TMP DP  RH WIND       PRES   REMARKS
EDMONTON       CLEAR     28  25  86 N6        30.09R WCI  22
CALGARY        PTCLDY    34  21  60 W3        30.06R
LETHBRIDGE     MOCLDY    36  21  55 W7        30.05R WCI  30
MEDICINE HAT   MOCLDY    27  25  93 N5        30.03R
WATERTON GATE    N/A     48  25  40 SW22G32     N/A
CARDSTON         N/A     43  23  45 N6          N/A
MILK RIVER       N/A     39  27  60 N14         N/A  WCI  31
ONEFOUR          N/A     36  28  75 NW17        N/A  WCI  25
$$

REGIONAL REPORTS...SASKATCHEWAN

CITY           SKY/WX    TMP DP  RH WIND       PRES   REMARKS
SWIFT CURRENT  CLEAR     27  27 100 W10       29.96R WCI  17
REGINA         CLOUDY    23  19  86 CALM      29.92R
SASKATOON      CLOUDY    23  23 100 N8        30.01R WCI  14
CYPRESS HILLS    N/A     32  21  64 N7          N/A  WCI  26
VAL MARIE        N/A     32  27  80 N15         N/A  WCI  22
ROCKGLEN         N/A     32  28  86 N18G24      N/A  WCI  20
ASSINIBOIA       N/A     28  28 100 NW6         N/A  WCI  22
$$



USA.gov is the U.S. government's official web portal to all federal, state and local government web resources and services.